EJA800 KJAX-KFLL

Flight info

Callsign EJA800
Flight time 0h 55m
Altitude 41000
Route EXBOX2 EXBOX PRMUS CUUDA3
Aircraft C750/M-SBDE3FGHRWXY/S

Departure

Time 2026-05-03 22:59
Airport Jacksonville International Airport (KJAX)

Arrival

Time 2026-05-03 23:55
Airport Fort Lauderdale Hollywood International Airport (KFLL)
Time Latitude Longitude Altitude Speed Heading
2026-05-03 22:36 30.49781 -81.67826 34 ft 0 kts 282°
2026-05-03 22:52 30.49781 -81.67827 34 ft 1 kts 282°
2026-05-03 22:52 30.49793 -81.67829 34 ft 4 kts
2026-05-03 22:52 30.49829 -81.67848 33 ft 9 kts 284°
2026-05-03 22:52 30.49877 -81.67916 32 ft 14 kts 343°
2026-05-03 22:53 30.49968 -81.67955 32 ft 14 kts 321°
2026-05-03 22:53 30.49970 -81.68047 34 ft 11 kts 250°
2026-05-03 22:53 30.49945 -81.68128 35 ft 11 kts 250°
2026-05-03 22:53 30.49920 -81.68211 33 ft 12 kts 250°
2026-05-03 22:54 30.49891 -81.68304 32 ft 13 kts 250°
2026-05-03 22:54 30.49867 -81.68403 32 ft 12 kts 271°
2026-05-03 22:54 30.49908 -81.68476 33 ft 10 kts 278°
2026-05-03 22:54 30.49890 -81.68550 34 ft 10 kts 251°
2026-05-03 22:55 30.49862 -81.68642 34 ft 14 kts 250°
2026-05-03 22:55 30.49826 -81.68763 34 ft 17 kts 250°
2026-05-03 22:55 30.49781 -81.68901 36 ft 19 kts 248°
2026-05-03 22:55 30.49728 -81.69060 36 ft 23 kts 249°
2026-05-03 22:56 30.49681 -81.69221 38 ft 21 kts 256°
2026-05-03 22:56 30.49637 -81.69388 37 ft 22 kts 251°
2026-05-03 22:56 30.49583 -81.69557 36 ft 22 kts 248°
2026-05-03 22:56 30.49525 -81.69728 32 ft 24 kts 252°
2026-05-03 22:57 30.49491 -81.69846 30 ft 11 kts 251°
2026-05-03 22:57 30.49484 -81.69869 30 ft 0 kts 251°
2026-05-03 22:57 30.49477 -81.69889 30 ft 7 kts 244°
2026-05-03 22:57 30.49416 -81.69926 31 ft 14 kts 191°
2026-05-03 22:58 30.49326 -81.69962 31 ft 17 kts 216°
2026-05-03 22:58 30.49216 -81.70049 31 ft 15 kts 188°
2026-05-03 22:58 30.49170 -81.70017 33 ft 0 kts 128°
2026-05-03 22:59 30.49095 -81.69913 32 ft 38 kts 130°
2026-05-03 22:59 30.48745 -81.69436 29 ft 129 kts 130°
2026-05-03 22:59 30.48072 -81.68508 391 ft 156 kts 129°
2026-05-03 22:59 30.47330 -81.67481 1208 ft 179 kts 127°
2026-05-03 23:00 30.46481 -81.66312 1980 ft 196 kts 130°
2026-05-03 23:00 30.45618 -81.65035 2770 ft 211 kts 124°
2026-05-03 23:00 30.44660 -81.63524 2879 ft 253 kts 125°
2026-05-03 23:00 30.43547 -81.61768 2886 ft 280 kts 125°
2026-05-03 23:01 30.42307 -81.60018 3031 ft 289 kts 132°
2026-05-03 23:01 30.40893 -81.58414 4487 ft 275 kts 141°
2026-05-03 23:01 30.39283 -81.57208 5692 ft 277 kts 156°
2026-05-03 23:01 30.37578 -81.56122 6798 ft 282 kts 156°
2026-05-03 23:02 30.35916 -81.54867 7921 ft 289 kts 152°
2026-05-03 23:02 30.34279 -81.53486 9129 ft 293 kts 152°
2026-05-03 23:02 30.32599 -81.52126 10222 ft 297 kts 154°
2026-05-03 23:02 30.30819 -81.50754 10740 ft 321 kts 155°
2026-05-03 23:03 30.28878 -81.49246 11026 ft 350 kts 153°
2026-05-03 23:03 30.26808 -81.47587 11460 ft 368 kts 152°
2026-05-03 23:03 30.24706 -81.45887 12398 ft 370 kts 153°
2026-05-03 23:03 30.22563 -81.44201 13149 ft 377 kts 154°
2026-05-03 23:04 30.20377 -81.42496 13955 ft 382 kts 154°
2026-05-03 23:04 30.18175 -81.40752 14656 ft 386 kts 154°
2026-05-03 23:04 30.15920 -81.38963 15026 ft 400 kts 154°
2026-05-03 23:04 30.13603 -81.37139 15015 ft 402 kts 154°
2026-05-03 23:05 30.11314 -81.35324 15016 ft 397 kts 154°
2026-05-03 23:05 30.09043 -81.33532 15020 ft 396 kts 154°
2026-05-03 23:05 30.06766 -81.31745 15016 ft 396 kts 154°
2026-05-03 23:05 30.04494 -81.29960 15015 ft 395 kts 154°
2026-05-03 23:06 30.02223 -81.28169 15019 ft 396 kts 154°
2026-05-03 23:06 29.99928 -81.26367 15442 ft 398 kts 154°
2026-05-03 23:06 29.97652 -81.24574 16424 ft 396 kts 154°
2026-05-03 23:06 29.95361 -81.22777 17180 ft 402 kts 154°
2026-05-03 23:07 29.93034 -81.20955 18016 ft 406 kts 155°
2026-05-03 23:07 29.90694 -81.19118 18794 ft 410 kts 155°
2026-05-03 23:07 29.88315 -81.17252 19511 ft 415 kts 155°
2026-05-03 23:07 29.85913 -81.15380 20233 ft 420 kts 155°
2026-05-03 23:08 29.83466 -81.13507 20966 ft 425 kts 155°
2026-05-03 23:08 29.80911 -81.11808 21635 ft 422 kts 163°
2026-05-03 23:08 29.78211 -81.10481 22378 ft 423 kts 167°
2026-05-03 23:08 29.75489 -81.09156 23130 ft 429 kts 166°
2026-05-03 23:09 29.72720 -81.07776 23827 ft 434 kts 166°
2026-05-03 23:09 29.69928 -81.06396 24480 ft 437 kts 166°
2026-05-03 23:09 29.67122 -81.05032 25145 ft 441 kts 166°
2026-05-03 23:09 29.64287 -81.03652 25804 ft 444 kts 166°
2026-05-03 23:10 29.61439 -81.02253 26460 ft 448 kts 166°
2026-05-03 23:10 29.58551 -81.00835 27104 ft 451 kts 166°
2026-05-03 23:10 29.55684 -80.99437 27739 ft 455 kts 166°
2026-05-03 23:10 29.52728 -80.97996 28395 ft 459 kts 166°
2026-05-03 23:11 29.49776 -80.96553 29012 ft 463 kts 166°
2026-05-03 23:11 29.46798 -80.95098 29614 ft 466 kts 166°
2026-05-03 23:11 29.43837 -80.93656 30189 ft 470 kts 166°
2026-05-03 23:11 29.40818 -80.92186 30693 ft 473 kts 166°
2026-05-03 23:12 29.37772 -80.90701 31236 ft 475 kts 166°
2026-05-03 23:12 29.34754 -80.89227 32016 ft 470 kts 166°
2026-05-03 23:12 29.31751 -80.87764 32804 ft 467 kts 166°
2026-05-03 23:12 29.28735 -80.86302 33576 ft 464 kts 167°
2026-05-03 23:13 29.25773 -80.84866 34322 ft 461 kts 167°
2026-05-03 23:13 29.22816 -80.83429 34988 ft 458 kts 167°
2026-05-03 23:13 29.19882 -80.82005 35647 ft 456 kts 168°
2026-05-03 23:13 29.17007 -80.80612 36286 ft 454 kts 168°
2026-05-03 23:14 29.14099 -80.79204 36952 ft 453 kts 168°
2026-05-03 23:14 29.11197 -80.77799 37618 ft 451 kts 169°
2026-05-03 23:14 29.08299 -80.76397 38296 ft 450 kts 169°
2026-05-03 23:14 29.05428 -80.75008 38937 ft 449 kts 170°
2026-05-03 23:15 29.02546 -80.73616 39453 ft 449 kts 170°
2026-05-03 23:15 28.99660 -80.72226 39908 ft 451 kts 170°
2026-05-03 23:15 28.96755 -80.70834 40095 ft 458 kts 171°
2026-05-03 23:15 28.93740 -80.69492 40091 ft 470 kts 171°
2026-05-03 23:16 28.90654 -80.68117 40092 ft 482 kts 171°
2026-05-03 23:16 28.87491 -80.66690 40089 ft 493 kts 170°
2026-05-03 23:16 28.84284 -80.65245 40085 ft 501 kts 170°
2026-05-03 23:17 28.77701 -80.62312 40079 ft 513 kts 170°
2026-05-03 23:17 28.71021 -80.59319 40073 ft 516 kts 169°
2026-05-03 23:18 28.64383 -80.56365 40068 ft 515 kts 169°
2026-05-03 23:18 28.57703 -80.53392 40040 ft 515 kts 169°
2026-05-03 23:19 28.50986 -80.50406 40035 ft 515 kts 169°
2026-05-03 23:19 28.44303 -80.47441 40040 ft 516 kts 169°
2026-05-03 23:20 28.37608 -80.44473 40033 ft 516 kts 169°
2026-05-03 23:20 28.30952 -80.41528 40036 ft 517 kts 169°
2026-05-03 23:21 28.24239 -80.38560 40032 ft 517 kts 169°
2026-05-03 23:21 28.17528 -80.35598 40036 ft 518 kts 169°
2026-05-03 23:22 28.08573 -80.31683 40045 ft 515 kts 171°
2026-05-03 23:22 28.01799 -80.29053 40052 ft 515 kts 171°
2026-05-03 23:23 27.95031 -80.26391 39701 ft 508 kts 171°
2026-05-03 23:23 27.91712 -80.25085 39019 ft 497 kts 171°
2026-05-03 23:23 27.88488 -80.23832 38315 ft 484 kts 172°
2026-05-03 23:24 27.85353 -80.22614 37709 ft 467 kts 172°
2026-05-03 23:24 27.82318 -80.21429 37109 ft 456 kts 172°
2026-05-03 23:24 27.79335 -80.20275 36520 ft 454 kts 172°
2026-05-03 23:24 27.76305 -80.19110 35904 ft 464 kts 171°
2026-05-03 23:25 27.73229 -80.17922 35301 ft 485 kts 171°
2026-05-03 23:25 27.69943 -80.16643 34622 ft 500 kts 172°
2026-05-03 23:25 27.66730 -80.15365 33968 ft 488 kts 171°
2026-05-03 23:25 27.63546 -80.14107 33341 ft 469 kts 172°
2026-05-03 23:26 27.60520 -80.12888 32725 ft 456 kts 170°
2026-05-03 23:26 27.57611 -80.11693 32145 ft 446 kts 171°
2026-05-03 23:26 27.54709 -80.10538 31567 ft 443 kts 171°
2026-05-03 23:26 27.51788 -80.09348 30987 ft 449 kts 169°
2026-05-03 23:27 27.48818 -80.08110 30389 ft 460 kts 169°
2026-05-03 23:27 27.45788 -80.06852 29730 ft 467 kts 168°
2026-05-03 23:27 27.42730 -80.05598 29102 ft 470 kts 168°
2026-05-03 23:27 27.39645 -80.04335 28486 ft 473 kts 168°
2026-05-03 23:28 27.36523 -80.03219 27855 ft 462 kts 173°
2026-05-03 23:28 27.33479 -80.02295 27256 ft 443 kts 174°
2026-05-03 23:28 27.30571 -80.01423 26684 ft 425 kts 174°
2026-05-03 23:28 27.27770 -80.00565 26140 ft 411 kts 174°
2026-05-03 23:29 27.25072 -79.99704 25603 ft 405 kts 171°
2026-05-03 23:29 27.22369 -79.98711 25079 ft 404 kts 171°
2026-05-03 23:29 27.19703 -79.97762 24552 ft 408 kts 171°
2026-05-03 23:29 27.17031 -79.96806 24022 ft 399 kts 171°
2026-05-03 23:30 27.14406 -79.95848 23477 ft 391 kts 171°
2026-05-03 23:30 27.11836 -79.94917 22933 ft 385 kts 171°
2026-05-03 23:30 27.09303 -79.94011 22441 ft 381 kts 171°
2026-05-03 23:30 27.06773 -79.93097 21934 ft 384 kts 169°
2026-05-03 23:31 27.04242 -79.92044 21430 ft 392 kts 167°
2026-05-03 23:31 27.01651 -79.91011 20907 ft 396 kts 168°
2026-05-03 23:31 26.99047 -79.89986 20385 ft 398 kts 167°
2026-05-03 23:31 26.96427 -79.88925 19856 ft 400 kts 167°
2026-05-03 23:32 26.93805 -79.87853 19325 ft 401 kts 166°
2026-05-03 23:32 26.91169 -79.86791 18790 ft 402 kts 166°
2026-05-03 23:32 26.88529 -79.85736 18249 ft 404 kts 166°
2026-05-03 23:32 26.85887 -79.84672 17688 ft 404 kts 166°
2026-05-03 23:33 26.83265 -79.83613 17131 ft 405 kts 166°
2026-05-03 23:33 26.80605 -79.82544 16587 ft 407 kts 166°
2026-05-03 23:33 26.77902 -79.81459 16041 ft 408 kts 165°
2026-05-03 23:33 26.75265 -79.80396 15504 ft 399 kts 165°
2026-05-03 23:34 26.72743 -79.79391 14995 ft 380 kts 166°
2026-05-03 23:34 26.70359 -79.78938 14492 ft 315 kts 183°
2026-05-03 23:34 26.68277 -79.79122 14119 ft 296 kts 195°
2026-05-03 23:34 26.66355 -79.79772 13743 ft 285 kts 205°
2026-05-03 23:35 26.64512 -79.80545 13361 ft 281 kts 205°
2026-05-03 23:35 26.62682 -79.81282 12988 ft 279 kts 204°
2026-05-03 23:35 26.60863 -79.82016 12628 ft 277 kts 204°
2026-05-03 23:35 26.59030 -79.82766 12255 ft 277 kts 205°
2026-05-03 23:36 26.57221 -79.83506 11886 ft 277 kts 204°
2026-05-03 23:36 26.55411 -79.84246 11522 ft 275 kts 205°
2026-05-03 23:36 26.53675 -79.85086 11158 ft 288 kts 207°
2026-05-03 23:36 26.51777 -79.85972 10998 ft 292 kts 206°
2026-05-03 23:37 26.49906 -79.86825 10998 ft 292 kts 206°
2026-05-03 23:37 26.48032 -79.87708 10991 ft 294 kts 207°
2026-05-03 23:37 26.46135 -79.88608 10820 ft 296 kts 207°
2026-05-03 23:37 26.44229 -79.89502 10486 ft 299 kts 206°
2026-05-03 23:38 26.42305 -79.90401 10131 ft 298 kts 206°
2026-05-03 23:38 26.40393 -79.91298 9769 ft 296 kts 207°
2026-05-03 23:38 26.38515 -79.92185 9380 ft 291 kts 207°
2026-05-03 23:38 26.36756 -79.93264 8976 ft 286 kts 214°
2026-05-03 23:39 26.35050 -79.94386 8587 ft 285 kts 213°
2026-05-03 23:39 26.33329 -79.95489 8194 ft 284 kts 213°
2026-05-03 23:39 26.31618 -79.96578 7807 ft 282 kts 213°
2026-05-03 23:39 26.29929 -79.97663 7596 ft 279 kts 213°
2026-05-03 23:40 26.28240 -79.98749 7602 ft 275 kts 213°
2026-05-03 23:40 26.26636 -79.99774 7577 ft 260 kts 213°
2026-05-03 23:40 26.25105 -80.00757 7582 ft 253 kts 213°
2026-05-03 23:40 26.23559 -80.01756 7581 ft 256 kts 213°
2026-05-03 23:41 26.22009 -80.02753 7582 ft 258 kts 213°
2026-05-03 23:41 26.20479 -80.03732 7579 ft 248 kts 213°
2026-05-03 23:41 26.19020 -80.04684 7573 ft 236 kts 216°
2026-05-03 23:41 26.17940 -80.05959 7558 ft 225 kts 240°
2026-05-03 23:42 26.17352 -80.07569 7595 ft 222 kts 253°
2026-05-03 23:42 26.16865 -80.09229 7593 ft 228 kts 252°
2026-05-03 23:42 26.16359 -80.10887 7589 ft 230 kts 252°
2026-05-03 23:42 26.15837 -80.12600 7602 ft 235 kts 252°
2026-05-03 23:43 26.15307 -80.14365 8010 ft 247 kts 252°
2026-05-03 23:43 26.14982 -80.16240 7773 ft 251 kts 268°
2026-05-03 23:43 26.15024 -80.18216 7324 ft 259 kts 271°
2026-05-03 23:43 26.15056 -80.20228 6891 ft 259 kts 269°
2026-05-03 23:44 26.15054 -80.22212 6452 ft 254 kts 269°
2026-05-03 23:44 26.15055 -80.24159 5970 ft 249 kts 269°
2026-05-03 23:44 26.15065 -80.26110 5491 ft 257 kts 270°
2026-05-03 23:44 26.15075 -80.28126 4996 ft 262 kts 270°
2026-05-03 23:45 26.15083 -80.30090 4979 ft 248 kts 270°
2026-05-03 23:45 26.15091 -80.32000 4979 ft 247 kts 270°
2026-05-03 23:45 26.15097 -80.33875 4975 ft 234 kts 270°
2026-05-03 23:45 26.15104 -80.35605 4968 ft 214 kts 269°
2026-05-03 23:46 26.15112 -80.37201 4876 ft 200 kts 270°
2026-05-03 23:46 26.15121 -80.38680 4916 ft 183 kts 270°
2026-05-03 23:46 26.15128 -80.40101 4714 ft 180 kts 270°
2026-05-03 23:46 26.15131 -80.41420 4828 ft 164 kts 270°
2026-05-03 23:47 26.15140 -80.42745 4482 ft 180 kts 270°
2026-05-03 23:47 26.14779 -80.44093 3962 ft 192 kts 232°
2026-05-03 23:47 26.13595 -80.44761 3470 ft 199 kts 187°
2026-05-03 23:47 26.12226 -80.44633 3068 ft 196 kts 174°
2026-05-03 23:48 26.10947 -80.44324 2941 ft 180 kts 155°
2026-05-03 23:48 26.10138 -80.43353 2966 ft 165 kts 125°
2026-05-03 23:48 26.09487 -80.42322 2997 ft 161 kts 127°
2026-05-03 23:48 26.08872 -80.41370 2994 ft 162 kts 127°
2026-05-03 23:49 26.08202 -80.40250 2968 ft 178 kts 116°
2026-05-03 23:49 26.07876 -80.38879 2996 ft 186 kts 99°
2026-05-03 23:49 26.07823 -80.37440 3001 ft 187 kts 90°
2026-05-03 23:49 26.07816 -80.35989 2997 ft 187 kts 91°
2026-05-03 23:50 26.07803 -80.34606 2972 ft 175 kts 90°
2026-05-03 23:50 26.07798 -80.33706 2965 ft 167 kts 90°
2026-05-03 23:50 26.07789 -80.32085 2660 ft 157 kts 90°
2026-05-03 23:50 26.07783 -80.30917 2476 ft 145 kts 90°
2026-05-03 23:51 26.07777 -80.29827 2291 ft 137 kts 90°
2026-05-03 23:51 26.07771 -80.28793 2122 ft 131 kts 90°
2026-05-03 23:51 26.07765 -80.27787 1956 ft 128 kts 89°
2026-05-03 23:51 26.07760 -80.26807 1794 ft 126 kts 89°
2026-05-03 23:52 26.07752 -80.25836 1628 ft 125 kts 89°
2026-05-03 23:52 26.07747 -80.24865 1460 ft 125 kts 89°
2026-05-03 23:52 26.07741 -80.23894 1317 ft 125 kts 89°
2026-05-03 23:52 26.07736 -80.22922 1122 ft 126 kts 88°
2026-05-03 23:53 26.07726 -80.21958 964 ft 124 kts 88°
2026-05-03 23:53 26.07721 -80.20997 807 ft 124 kts 88°
2026-05-03 23:53 26.07715 -80.20045 661 ft 124 kts 88°
2026-05-03 23:53 26.07710 -80.19087 501 ft 124 kts 88°
2026-05-03 23:54 26.07712 -80.18114 348 ft 125 kts 88°
2026-05-03 23:54 26.07711 -80.17142 189 ft 125 kts 88°
2026-05-03 23:54 26.07701 -80.16215 18 ft 112 kts 90°
2026-05-03 23:54 26.07701 -80.15508 7 ft 61 kts 90°
2026-05-03 23:55 26.07689 -80.15132 7 ft 42 kts 98°
2026-05-03 23:55 26.07605 -80.14928 12 ft 15 kts 159°
2026-05-03 23:55 26.07596 -80.14927 12 ft 0 kts 191°
2026-05-03 23:57 26.07565 -80.14968 11 ft 15 kts 251°
2026-05-03 23:57 26.07563 -80.15116 9 ft 21 kts 269°
2026-05-03 23:57 26.07552 -80.15270 7 ft 19 kts 240°
2026-05-03 23:57 26.07435 -80.15299 8 ft 17 kts 179°
2026-05-03 23:58 26.07329 -80.15299 13 ft 13 kts 180°
2026-05-03 23:58 26.07248 -80.15300 16 ft 10 kts 180°
2026-05-03 23:58 26.07191 -80.15300 18 ft 7 kts 180°
2026-05-03 23:58 26.07136 -80.15302 21 ft 10 kts 187°
2026-05-03 23:59 26.07113 -80.15355 20 ft 9 kts 303°
2026-05-03 23:59 26.07159 -80.15410 19 ft 11 kts 315°
2026-05-03 23:59 26.07184 -80.15486 16 ft 11 kts 241°
2026-05-03 23:59 26.07166 -80.15512 16 ft 0 kts 232°